Location: Lake Grove
(40.8529°N, 73.1151°W)
Time: 13:53:23
(UTC+00:00)

Daily predictions for brighter satellites

Satellite Brightness Start Highest point End
(mag) Time Altitude Azimuth Time Altitude Azimuth Time Altitude Azimuth
PAYLOAD B 4.2 21:48:47 10° SSE 21:54:21 73° ENE 21:59:55 10° N
CZ-4B DEB 4.3 21:51:40 10° SSE 21:57:09 88° WSW 22:02:40 10° NNW
ERS-2 3.6 21:54:31 10° NE 21:57:15 20° E 21:59:59 10° SE
Cosmos 2292 4.4 21:54:21 10° S 21:57:20 56° E 22:00:47 10° NNE
Cosmos 2333 Rocket 3.8 21:56:01 10° WSW 22:01:04 32° WNW 22:06:06 10° N
Cosmos 2184 Rocket 4.3 21:55:21 10° N 22:01:45 79° W 22:08:04 10° S
Envisat 3.1 21:59:11 10° SSE 22:04:16 84° WSW 22:09:23 10° NNW
Cosmos 1743 Rocket 3.8 22:01:06 10° N 22:05:36 80° W 22:10:00 10° S
USA 267 4.2 22:00:43 10° ENE 22:06:10 29° NNE 22:11:37 10° NW
BREEZE-M TANK 2.8 22:00:07 10° WNW 22:06:44 85° SSW 22:10:01 10° ESE
COSMOS 2428 4.1 22:01:31 10° SW 22:06:47 37° WNW 22:12:05 10° N
Lacrosse 5 rocket 2.4 22:04:03 10° S 22:07:04 24° SE 22:09:52 11° ENE
COSMO-SKYMED 1 3.9 22:04:05 10° NE 22:07:22 21° E 22:10:37 10° SE
Cosmos 1862 3.4 22:04:47 10° N 22:08:51 86° W 22:12:50 10° S
SL-24 R/B - RUBIN 2 4.2 22:03:47 10° NNW 22:10:02 71° NE 22:15:32 10° SE
Sich 1 3.4 22:07:14 10° N 22:11:25 41° ENE 22:15:31 10° SSE
NOAA 12 4.1 22:06:17 10° SSE 22:11:33 67° ENE 22:16:51 10° N
Okean-O 4.3 22:10:14 10° E 22:12:20 13° ENE 22:14:27 10° NE
Cosmos 2278 Rocket 2.3 22:07:23 10° NNW 22:13:06 87° WSW 22:18:46 10° SSE
GENESIS II 4.2 22:13:56 10° NNW 22:17:50 58° NE 22:21:39 10° SE
AQUARIUS 4.1 22:16:02 10° SSE 22:20:30 74° ENE 22:25:01 10° N
Okean O Rocket 1.5 22:16:39 10° SSE 22:20:59 76° ENE 22:25:21 10° N
Cosmos 1151 Rocket 3.8 22:19:15 10° SSE 22:22:58 29° E 22:26:40 10° NNE
H-2A R/B 3.6 22:23:09 14° ENE 22:24:09 14° ENE 22:26:50 10° NNE
Radarsat Rocket 4.4 22:19:27 10° S 22:25:20 71° WSW 22:31:50 10° NNW
Cosmos 1805 Rocket 3.5 22:20:57 10° N 22:25:26 83° E 22:29:52 10° S
CZ-4 R/B 3.0 22:26:58 15° NE 22:26:58 15° NE 22:28:31 10° NNE
YAOGAN 6 3.7 22:22:51 10° S 22:26:24 49° W 22:29:57 10° NNW
Cosmos 2219 Rocket 4.3 22:22:54 10° WSW 22:27:15 22° NW 22:31:38 10° N
Cosmos 389 Rocket 2.3 22:24:33 10° S 22:27:58 77° E 22:31:24 10° NNE
USA 281 3.8 22:26:02 10° ESE 22:31:43 33° NE 22:37:24 10° N
Cosmos 1666 Rocket 3.8 22:27:37 10° N 22:31:51 44° ENE 22:36:04 10° SSE
Cosmos 1328 Rocket 4.2 22:28:50 10° SSE 22:32:40 32° E 22:36:31 10° NNE
CZ-4B R/B 3.4 22:28:53 10° S 22:34:13 72° WSW 22:39:33 10° NNW
Cosmos 1939 Rocket 3.2 22:32:13 10° SE 22:35:48 38° ENE 22:39:26 10° N
BREEZE-M DEB (TANK) 4.0 22:33:48 10° SSW 22:36:54 17° SSE 22:38:20 14° ESE
ISS -1.9 22:35:05 10° WNW 22:37:51 23° NNW 22:39:50 14° NNE
Cosmos 2237 Rocket 3.0 22:32:44 10° SW 22:38:11 51° WNW 22:43:41 10° NNE
NOAA 11 4.1 22:34:13 10° SSE 22:39:37 79° ENE 22:45:04 10° N
OE (NEXTSAT) 4.4 22:36:26 10° WSW 22:39:52 67° NNW 22:41:40 26° ENE
Cosmos 2218 Rocket 4.1 22:35:35 10° N 22:41:30 47° ENE 22:47:23 10° SSE
FengYun 1-2 T 4.3 22:44:11 10° SSE 22:49:45 81° WSW 22:55:18 10° NNW
H-2A R/B 3.9 22:46:33 10° N 22:50:10 29° WNW 22:53:51 10° SW
CREW DRAGON DEMO-1 DEB 3.8 22:47:34 10° NW 22:50:09 28° NNE 22:50:09 28° NNE
CZ-4B R/B 1.5 22:47:24 10° N 22:50:27 64° WNW 22:53:32 10° SSW
Cosmos 2366 rocket 4.0 22:44:47 10° N 22:50:51 54° E 22:56:50 10° SSE
Cosmos 1356 3.6 22:49:39 10° NNW 22:53:04 70° W 22:56:28 10° S
Cosmos 2369 Rocket 3.4 22:49:12 10° N 22:53:22 21° NE 22:53:22 21° NE
SKYMED 2 3.5 22:51:20 10° NNE 22:55:40 70° ESE 22:59:59 10° S
Abrixas rocket 4.0 22:53:53 10° W 22:56:14 25° SW 22:58:33 10° SSE
Cosmos 1633 Rocket 2.9 22:57:04 10° N 23:01:27 77° E 23:05:48 10° S
EO 1 Delta rocket 4.5 22:57:38 10° NNE 23:03:07 65° E 23:10:03 10° S
X-37B 2.3 23:02:23 10° SSW 23:04:30 21° SSE 23:04:30 21° SSE
Cosmos 1867 4.1 22:59:57 10° SW 23:05:18 59° NW 23:09:40 16° NNE
Cosmos 1538 Rocket 4.4 23:04:41 10° S 23:09:42 43° ESE 23:11:04 36° ENE
SAR-Lupe-4 3.6 23:08:16 22° N 23:10:31 78° WNW 23:14:05 10° SSW
Cosmos 1933 3.9 23:06:39 10° SSW 23:10:37 58° W 23:14:37 10° N
CZ-2C R/B 3.0 23:07:31 10° SSE 23:12:33 54° ENE 23:17:20 10° N
USA 215 3.6 23:12:52 21° NE 23:17:21 62° NW 23:23:46 10° WSW
Cosmos 1943 Rocket 2.3 23:12:18 10° NNW 23:17:41 49° ENE 23:19:12 38° ESE
SL-24 DEB 4.1 23:16:51 10° N 23:21:39 82° E 23:26:21 10° S
Cosmos 2297 3.6 23:16:02 10° NNW 23:21:46 90° ENE 23:27:28 10° SSE
Cosmos 1782 2.6 23:20:36 10° S 23:24:32 90° W 23:25:18 57° N
Meteor 1-4 Rocket 2.5 23:22:49 10° SSW 23:26:26 81° W 23:26:26 81° W
SL-16 R/B 2.7 23:21:23 10° SW 23:26:56 58° WNW 23:31:22 16° NNE
YAOGAN 1 3.3 23:30:24 38° N 23:30:24 38° N 23:33:10 10° N
ERS-2 4.3 23:27:42 10° NNW 23:30:45 25° WNW 23:33:47 10° SW
BREEZE-M DEB (TANK) 3.3 23:21:06 10° SW 23:30:55 70° SSE 23:31:28 62° E
Cosmos 1689 Rocket 3.7 23:32:45 34° WSW 23:32:45 34° WSW 23:34:51 10° SW
Meteor 2-6 Rocket 4.4 23:27:06 10° SSE 23:31:53 47° ESE 23:31:53 47° ESE
Cosmos 2285 Rocket 4.0 23:27:14 10° NNW 23:33:40 81° WSW 23:40:00 10° SSE
PSLV R/B 4.3 23:32:06 32° N 23:33:49 60° WNW 23:37:47 10° SSW
Helios 1A Rocket 3.2 23:31:35 10° SSE 23:36:28 55° NNW 23:39:39 10° NNW
Nadezhda 3 Rocket 4.0 23:29:33 10° SSE 23:35:43 56° E 23:37:29 43° NE
Meteor 1-14 Rocket 4.2 23:30:21 10° N 23:36:19 78° E 23:42:18 10° SSE
ATLAS CENTAUR R/B 4.3 23:16:00 10° NW 23:36:33 78° NE 23:40:45 34° ESE
Cosmos 1470 Rocket 3.6 23:33:45 10° NNW 23:38:04 75° W 23:42:22 10° S
DMSP B5D1-3 4.3 23:41:18 72° E 23:41:30 74° ESE 23:46:37 10° S
Cosmos 1515 Rocket 3.7 23:38:52 10° SSW 23:43:12 69° W 23:43:50 59° NNW
COSMO-SKYMED 1 4.1 23:39:39 10° N 23:43:35 34° WNW 23:47:30 10° SW
CZ-2D R/B 4.5 23:40:11 10° S 23:43:46 41° W 23:47:24 10° NNW
Lacrosse 5 rocket 2.6 23:42:41 10° WSW 23:45:31 32° WNW 23:45:31 32° WNW
Okean-O 3.0 23:43:54 10° S 23:48:17 62° W 23:52:41 10° NNW
USA 267 3.1 23:47:07 56° E 23:48:30 72° NE 23:55:01 10° NW
Cosmos 1821 Rocket 3.8 23:46:37 10° N 23:52:51 71° E 23:59:08 10° SSE
MOS 1 Rocket 3.8 23:51:15 27° N 23:54:19 70° WNW 23:59:41 10° SSW
